Regional Weather Roundup
Issued by NWS

Home | Current Version | Previous Version | Text Only | Print | Product List | Glossary Off
Versions: 1 2 3 4 5 6 7 8 9 10 11 12 13 14 15 16 17 18 19 20 21 22 23 24 25 26 27 28 29 30 31 32 33 34 35 36 37 38 39 40 41 42 43 44 45 46 47 48 49 50

000
ASUS43 KLSX 221407
RWRMO

WEATHER SUMMARY FOR MISSOURI
NATIONAL WEATHER SERVICE SPRINGFIELD MO
900 AM CDT SUN APR 22 2018

NOTE: "FAIR" INDICATES FEW OR NO CLOUDS BELOW 12,000 FEET WITH NO
       SIGNIFICANT WEATHER AND/OR OBSTRUCTIONS TO VISIBILITY.
       CURRENT SKY AND/OR WEATHER CONDITIONS ARE NOT AVAILABLE FOR
       CHILLICOTHE AND FARMINGTON.

MOZ001>031-035>038-043-044-053-054-221500-
...NORTHERN AND WESTERN MISSOURI...

CITY           SKY/WX    TMP DP  RH WIND       PRES   REMARKS
KANSAS CTY INT CLOUDY    47  39  74 NE10      30.13S
KANSAS C DTWN  LGT RAIN  52  37  56 NE10G24   30.12S
LEE`S SUMMIT   LGT RAIN  47  41  80 NE10      30.12R
ST JOSEPH      CLOUDY    51  33  50 E10       30.17R
CHILLICOTHE      N/A     51  32  48 E7G16     30.18S
KIRKSVILLE     CLOUDY    50  32  50 E12       30.20S

$$
MOZ066>068-077>081-088>096-101>105-221500-
...SOUTHWEST MISSOURI...

CITY           SKY/WX    TMP DP  RH WIND       PRES   REMARKS
SPRINGFIELD    LGT RAIN  54  52  93 NE13      29.96F FOG
JOPLIN         CLOUDY    50  50 100 N7        29.98S
BRANSON        RAIN      54  54 100 N6        29.96F FOG

$$
MOZ032>034-039>042-045>050-055>058-069>072-221500-
...CENTRAL MISSOURI...

CITY           SKY/WX    TMP DP  RH WIND       PRES   REMARKS
COLUMBIA       CLOUDY    52  40  63 E9        30.12S
JEFFERSON CITY CLOUDY    51  46  83 E12G20    30.11F
ROLLA          LGT RAIN  51  49  92 E12       30.08S
SEDALIA        RAIN      48  47  96 NE12      30.12S FOG
WHITEMAN AFB   RAIN      47  45  92 NE13      30.06S
WARRENSBURG    RAIN      45  43  93 NE12G17   30.10F
OSAGE BEACH    RAIN      50  50 100 E8        30.07S

$$
MOZ051-052-059>065-221500-
...EAST CENTRAL MISSOURI...

CITY           SKY/WX    TMP DP  RH WIND       PRES   REMARKS
ST LOUIS INTL  CLOUDY    54  42  64 E15       30.16F
SPIRIT OF STL  CLOUDY    54  45  71 E10       30.15S
ST CHARLES     CLOUDY    55  39  54 E10       30.16F

$$
MOZ072>076-082>087-097>100-106>115-221500-
...SOUTH CENTRAL AND SOUTHEAST MISSOURI...

CITY           SKY/WX    TMP DP  RH WIND       PRES   REMARKS
CAPE GIRARDEAU CLOUDY    53  49  86 NE16      30.08F
FARMINGTON     LGT RAIN  52  49  89 E10       30.11F
POPLAR BLUFF   LGT RAIN  52  51  97 NE10      30.06F FOG
WEST PLAINS    CLOUDY    53  51  93 E13G24    30.01S

$$



USA.gov is the U.S. government's official web portal to all federal, state and local government web resources and services.